Climatologie pour Saint-Brevin les Pins
Jour • Résumé pour janvier 2, 2017 Système :  Métrique    Anglais   Mixte
« - 1 jour
+ 1 jour »
Jour Semaine Mois Année Personnalisé
  Maximum : Minimum : Moyenne :
Température sous abri : 6.4 °C 3.6 °C 5.4 °C
Point de rosée : 6.3 °C 2.3 °C 5.2 °C
Humidité : 99 % 91 % 98 %
Vitesse du vent : 27.4 km/h 0.0 km/h 6 km/h
Rafale : 35.4 km/h - -
Direction :- - East
Pression : 1028.3 hPa 1018.8 hPa -
Précipitations : 0.3 mm    
Historical Graphs
 
 
Tableau de données pour janvier 2, 2017
Heure Tempé Pt rosée Pression Vent Vitesse Rafale Humidité Taux pluie (/hr) Soleil
00:00 6.1 °C 5.9 °C 1018.8 hPa SE 6.4 km/h 14.5 km/h 99 % 0.0 mm 0 W/m2
00:05 6.1 °C 5.9 °C 1018.8 hPa SE 9.7 km/h 14.5 km/h 99 % 0.0 mm 0 W/m2
00:10 6.1 °C 6.0 °C 1019.2 hPa SSE 14.5 km/h 14.5 km/h 99 % 0.0 mm 0 W/m2
00:15 6.1 °C 6.0 °C 1019.2 hPa SE 6.4 km/h 14.5 km/h 99 % 0.0 mm 0 W/m2
00:20 6.2 °C 6.0 °C 1019.2 hPa SSE 4.8 km/h 16.1 km/h 99 % 0.0 mm 0 W/m2
00:25 6.2 °C 6.1 °C 1019.2 hPa SSE 1.6 km/h 16.1 km/h 99 % 0.0 mm 0 W/m2
00:30 6.2 °C 6.1 °C 1019.2 hPa SE 11.3 km/h 17.7 km/h 99 % 0.0 mm 0 W/m2
00:35 6.3 °C 6.1 °C 1019.2 hPa SSE 14.5 km/h 17.7 km/h 99 % 0.0 mm 0 W/m2
00:40 6.3 °C 6.1 °C 1019.2 hPa SSE 6.4 km/h 14.5 km/h 99 % 0.0 mm 0 W/m2
00:45 6.3 °C 6.2 °C 1019.2 hPa SSE 6.4 km/h 14.5 km/h 99 % 0.0 mm 0 W/m2
00:50 6.3 °C 6.2 °C 1019.2 hPa SE 8.0 km/h 16.1 km/h 99 % 0.0 mm 0 W/m2
00:55 6.4 °C 6.2 °C 1019.2 hPa SE 9.7 km/h 16.1 km/h 99 % 0.0 mm 0 W/m2
01:00 6.4 °C 6.2 °C 1019.2 hPa SSE 3.2 km/h 16.1 km/h 99 % 0.0 mm 0 W/m2
01:05 6.4 °C 6.2 °C 1019.2 hPa SE 4.8 km/h 16.1 km/h 99 % 0.0 mm 0 W/m2
01:10 6.4 °C 6.2 °C 1019.2 hPa SSE 6.4 km/h 16.1 km/h 99 % 0.0 mm 0 W/m2
01:15 6.4 °C 6.2 °C 1019.2 hPa SSE 12.9 km/h 16.1 km/h 99 % 0.0 mm 0 W/m2
01:20 6.3 °C 6.2 °C 1019.2 hPa SSE 6.4 km/h 16.1 km/h 99 % 0.0 mm 0 W/m2
01:25 6.3 °C 6.2 °C 1019.2 hPa SSE 1.6 km/h 16.1 km/h 99 % 0.0 mm 0 W/m2
01:30 6.3 °C 6.2 °C 1019.2 hPa SE 6.4 km/h 14.5 km/h 99 % 0.0 mm 0 W/m2
01:35 6.3 °C 6.2 °C 1019.2 hPa SE 3.2 km/h 14.5 km/h 99 % 0.0 mm 0 W/m2
01:40 6.4 °C 6.2 °C 1019.2 hPa SSE 1.6 km/h 16.1 km/h 99 % 0.0 mm 0 W/m2
01:45 6.4 °C 6.2 °C 1019.2 hPa SSE 3.2 km/h 16.1 km/h 99 % 0.0 mm 0 W/m2
01:50 6.4 °C 6.2 °C 1019.2 hPa SSE 3.2 km/h 12.9 km/h 99 % 0.0 mm 0 W/m2
01:55 6.4 °C 6.3 °C 1019.2 hPa ESE 8.0 km/h 12.9 km/h 99 % 0.0 mm 0 W/m2
02:00 6.4 °C 6.3 °C 1019.2 hPa ESE 3.2 km/h 11.3 km/h 99 % 0.0 mm 0 W/m2
02:05 6.4 °C 6.3 °C 1019.2 hPa SSE 6.4 km/h 12.9 km/h 99 % 0.0 mm 0 W/m2
02:10 6.4 °C 6.2 °C 1019.2 hPa SSE 9.7 km/h 14.5 km/h 99 % 0.0 mm 0 W/m2
02:15 6.3 °C 6.2 °C 1019.2 hPa SSE 6.4 km/h 14.5 km/h 99 % 0.0 mm 0 W/m2
02:20 6.3 °C 6.1 °C 1019.5 hPa SE 4.8 km/h 12.9 km/h 99 % 0.0 mm 0 W/m2
02:25 6.2 °C 6.1 °C 1019.5 hPa SE 3.2 km/h 11.3 km/h 99 % 0.0 mm 0 W/m2
02:30 6.2 °C 6.0 °C 1019.5 hPa ESE 3.2 km/h 11.3 km/h 99 % 0.0 mm 0 W/m2
02:35 6.2 °C 6.0 °C 1019.5 hPa ESE 6.4 km/h 11.3 km/h 99 % 0.0 mm 0 W/m2
02:40 6.1 °C 6.0 °C 1019.5 hPa Calm   14.5 km/h 99 % 0.0 mm 0 W/m2
02:45 6.1 °C 5.9 °C 1019.5 hPa ESE 4.8 km/h 14.5 km/h 99 % 0.0 mm 0 W/m2
02:50 6.1 °C 5.9 °C 1019.5 hPa SE 3.2 km/h 11.3 km/h 99 % 0.0 mm 0 W/m2
02:55 6.1 °C 5.9 °C 1019.9 hPa SSE 6.4 km/h 11.3 km/h 99 % 0.0 mm 0 W/m2
03:00 6.1 °C 5.9 °C 1019.9 hPa SE 3.2 km/h 11.3 km/h 99 % 0.0 mm 0 W/m2
03:05 6.0 °C 5.9 °C 1019.9 hPa South 1.6 km/h 11.3 km/h 99 % 0.0 mm 0 W/m2
03:10 6.0 °C 5.9 °C 1019.9 hPa SE 4.8 km/h 9.7 km/h 99 % 0.0 mm 0 W/m2
03:15 5.9 °C 5.8 °C 1019.9 hPa Calm   9.7 km/h 99 % 0.0 mm 0 W/m2
03:20 5.9 °C 5.8 °C 1019.9 hPa SE 6.4 km/h 6.4 km/h 99 % 0.0 mm 0 W/m2
03:25 5.9 °C 5.8 °C 1019.9 hPa SE 3.2 km/h 9.7 km/h 99 % 0.0 mm 0 W/m2
03:30 5.9 °C 5.7 °C 1020.2 hPa SE 3.2 km/h 9.7 km/h 99 % 0.0 mm 0 W/m2
03:35 5.9 °C 5.7 °C 1020.2 hPa SE 4.8 km/h 8.0 km/h 99 % 0.0 mm 0 W/m2
03:45 6.0 °C 5.9 °C 1020.2 hPa SSE 8.0 km/h 11.3 km/h 99 % 0.0 mm 0 W/m2
03:50 6.0 °C 5.9 °C 1020.2 hPa SSE 6.4 km/h 16.1 km/h 99 % 0.0 mm 0 W/m2
03:55 6.1 °C 5.9 °C 1020.2 hPa SSE 4.8 km/h 16.1 km/h 99 % 0.0 mm 0 W/m2
04:00 6.1 °C 6.0 °C 1020.2 hPa South 9.7 km/h 12.9 km/h 99 % 0.0 mm 0 W/m2
04:05 6.1 °C 6.0 °C 1020.2 hPa SSE 6.4 km/h 14.5 km/h 99 % 0.0 mm 0 W/m2
04:10 6.1 °C 6.0 °C 1020.2 hPa SSE 3.2 km/h 14.5 km/h 99 % 0.0 mm 0 W/m2
04:15 6.1 °C 6.0 °C 1020.2 hPa South 9.7 km/h 16.1 km/h 99 % 0.0 mm 0 W/m2
04:20 6.1 °C 5.9 °C 1020.2 hPa SSE 14.5 km/h 16.1 km/h 99 % 0.0 mm 0 W/m2
04:25 6.1 °C 5.9 °C 1020.2 hPa Calm   14.5 km/h 99 % 0.0 mm 0 W/m2
04:30 6.1 °C 5.9 °C 1020.2 hPa SSE 1.6 km/h 14.5 km/h 99 % 0.0 mm 0 W/m2
04:35 6.1 °C 5.9 °C 1020.2 hPa Calm   9.7 km/h 99 % 0.0 mm 0 W/m2
04:40 6.1 °C 5.9 °C 1020.2 hPa Calm   9.7 km/h 99 % 0.0 mm 0 W/m2
04:45 6.1 °C 5.9 °C 1020.5 hPa ESE 3.2 km/h 8.0 km/h 99 % 0.0 mm 0 W/m2
04:50 6.1 °C 5.9 °C 1020.5 hPa ESE 1.6 km/h 4.8 km/h 99 % 0.0 mm 0 W/m2
04:55 6.1 °C 5.9 °C 1020.5 hPa Calm   4.8 km/h 99 % 0.0 mm 0 W/m2
05:00 6.1 °C 6.0 °C 1020.5 hPa Calm   3.2 km/h 99 % 0.0 mm 0 W/m2
05:05 6.1 °C 6.0 °C 1020.5 hPa East 1.6 km/h 4.8 km/h 99 % 0.0 mm 0 W/m2
05:10 6.1 °C 6.0 °C 1020.5 hPa East 3.2 km/h 4.8 km/h 99 % 0.0 mm 0 W/m2
05:15 6.1 °C 6.0 °C 1020.5 hPa Calm   8.0 km/h 99 % 0.0 mm 0 W/m2
05:20 6.1 °C 6.0 °C 1020.5 hPa Calm   8.0 km/h 99 % 0.0 mm 0 W/m2
05:25 6.2 °C 6.0 °C 1020.5 hPa Calm   4.8 km/h 99 % 0.0 mm 0 W/m2
05:30 6.2 °C 6.0 °C 1020.9 hPa Calm   4.8 km/h 99 % 0.0 mm 0 W/m2
05:35 6.2 °C 6.0 °C 1020.5 hPa East 1.6 km/h 4.8 km/h 99 % 0.0 mm 0 W/m2
05:40 6.2 °C 6.0 °C 1020.5 hPa East 1.6 km/h 3.2 km/h 99 % 0.0 mm 0 W/m2
05:45 6.2 °C 6.0 °C 1020.9 hPa East 3.2 km/h 3.2 km/h 99 % 0.0 mm 0 W/m2
05:50 6.2 °C 6.0 °C 1020.9 hPa Calm   4.8 km/h 99 % 0.0 mm 0 W/m2
05:55 6.2 °C 6.0 °C 1020.9 hPa East 3.2 km/h 4.8 km/h 99 % 0.0 mm 0 W/m2
06:00 6.2 °C 6.0 °C 1020.9 hPa East 4.8 km/h 8.0 km/h 99 % 0.0 mm 0 W/m2
06:05 6.2 °C 6.0 °C 1020.9 hPa Calm   8.0 km/h 99 % 0.0 mm 0 W/m2
06:10 6.2 °C 6.0 °C 1021.2 hPa East 1.6 km/h 4.8 km/h 99 % 0.0 mm 0 W/m2
06:15 6.2 °C 6.0 °C 1021.2 hPa Calm   4.8 km/h 99 % 0.0 mm 0 W/m2
06:20 6.2 °C 6.0 °C 1021.2 hPa Calm   1.6 km/h 99 % 0.0 mm 0 W/m2
06:25 6.2 °C 6.0 °C 1021.2 hPa East 1.6 km/h 4.8 km/h 99 % 0.0 mm 0 W/m2
06:30 6.2 °C 6.0 °C 1021.2 hPa East 1.6 km/h 8.0 km/h 99 % 0.0 mm 0 W/m2
06:35 6.2 °C 6.0 °C 1021.2 hPa ESE 3.2 km/h 8.0 km/h 99 % 0.0 mm 0 W/m2
06:40 6.2 °C 6.0 °C 1021.2 hPa ESE 1.6 km/h 8.0 km/h 99 % 0.0 mm 0 W/m2
06:45 6.2 °C 6.0 °C 1021.6 hPa Calm   6.4 km/h 99 % 0.0 mm 0 W/m2
06:50 6.2 °C 6.1 °C 1021.6 hPa NNE 1.6 km/h 6.4 km/h 99 % 0.0 mm 0 W/m2
06:55 6.2 °C 6.0 °C 1021.6 hPa East 3.2 km/h 9.7 km/h 99 % 0.0 mm 0 W/m2
07:00 6.1 °C 5.9 °C 1021.6 hPa ENE 1.6 km/h 9.7 km/h 99 % 0.0 mm 0 W/m2
07:05 6.0 °C 5.9 °C 1021.9 hPa Calm   8.0 km/h 99 % 0.0 mm 0 W/m2
07:10 5.9 °C 5.7 °C 1021.9 hPa ENE 1.6 km/h 6.4 km/h 99 % 0.0 mm 0 W/m2
07:15 5.8 °C 5.6 °C 1021.9 hPa ENE 1.6 km/h 6.4 km/h 99 % 0.0 mm 0 W/m2
07:20 5.7 °C 5.6 °C 1021.9 hPa Calm   6.4 km/h 99 % 0.0 mm 0 W/m2
07:25 5.6 °C 5.5 °C 1021.9 hPa East 1.6 km/h 8.0 km/h 99 % 0.0 mm 0 W/m2
07:30 5.6 °C 5.5 °C 1021.9 hPa East 1.6 km/h 8.0 km/h 99 % 0.0 mm 0 W/m2
07:35 5.6 °C 5.4 °C 1021.9 hPa East 3.2 km/h 8.0 km/h 99 % 0.0 mm 0 W/m2
07:40 5.5 °C 5.4 °C 1022.2 hPa East 3.2 km/h 8.0 km/h 99 % 0.0 mm 0 W/m2
07:45 5.4 °C 5.3 °C 1022.2 hPa Calm   4.8 km/h 99 % 0.0 mm 0 W/m2
07:50 5.4 °C 5.3 °C 1022.2 hPa East 1.6 km/h 8.0 km/h 99 % 0.0 mm 0 W/m2
07:55 5.4 °C 5.2 °C 1022.2 hPa ENE 3.2 km/h 8.0 km/h 99 % 0.0 mm 0 W/m2
08:00 5.4 °C 5.2 °C 1022.2 hPa ENE 4.8 km/h 8.0 km/h 99 % 0.0 mm 0 W/m2
08:05 5.3 °C 5.2 °C 1022.2 hPa ENE 3.2 km/h 6.4 km/h 99 % 0.0 mm 0 W/m2
08:10 5.3 °C 5.2 °C 1022.2 hPa East 3.2 km/h 9.7 km/h 99 % 0.0 mm 0 W/m2
08:15 5.3 °C 5.1 °C 1022.6 hPa East 3.2 km/h 11.3 km/h 99 % 0.0 mm 0 W/m2
08:20 5.2 °C 5.1 °C 1022.6 hPa East 3.2 km/h 11.3 km/h 99 % 0.0 mm 0 W/m2
08:25 5.2 °C 5.1 °C 1022.6 hPa Calm   11.3 km/h 99 % 0.0 mm 0 W/m2
08:30 5.2 °C 5.1 °C 1022.6 hPa East 3.2 km/h 11.3 km/h 99 % 0.0 mm 0 W/m2
08:35 5.2 °C 5.0 °C 1022.6 hPa ESE 3.2 km/h 9.7 km/h 99 % 0.0 mm 0 W/m2
08:40 5.2 °C 5.0 °C 1022.6 hPa ESE 4.8 km/h 9.7 km/h 99 % 0.0 mm 0 W/m2
08:45 5.2 °C 5.0 °C 1022.6 hPa Calm   11.3 km/h 99 % 0.3 mm 0 W/m2
08:50 5.2 °C 5.0 °C 1022.6 hPa ESE 4.8 km/h 11.3 km/h 99 % 0.3 mm 0 W/m2
08:55 5.2 °C 5.0 °C 1022.9 hPa ENE 1.6 km/h 8.0 km/h 99 % 0.3 mm 0 W/m2
09:00 5.2 °C 5.0 °C 1022.9 hPa East 1.6 km/h 8.0 km/h 99 % 0.3 mm 0 W/m2
09:10 5.1 °C 5.0 °C 1022.9 hPa East 3.2 km/h 8.0 km/h 99 % 0.3 mm 0 W/m2
09:15 5.1 °C 5.0 °C 1022.9 hPa Calm   8.0 km/h 99 % 0.3 mm 0 W/m2
09:20 5.1 °C 5.0 °C 1022.9 hPa East 3.2 km/h 8.0 km/h 99 % 0.3 mm 0 W/m2
09:25 5.1 °C 5.0 °C 1022.9 hPa ESE 3.2 km/h 8.0 km/h 99 % 0.3 mm 5 W/m2
09:30 5.1 °C 5.0 °C 1022.9 hPa ESE 4.8 km/h 8.0 km/h 99 % 0.3 mm 7 W/m2
09:35 5.1 °C 5.0 °C 1022.9 hPa Calm   8.0 km/h 99 % 0.3 mm 11 W/m2
09:40 5.1 °C 5.0 °C 1022.9 hPa ESE 3.2 km/h 4.8 km/h 99 % 0.3 mm 14 W/m2
09:45 5.1 °C 5.0 °C 1022.9 hPa ESE 3.2 km/h 6.4 km/h 99 % 0.0 mm 19 W/m2
09:50 5.1 °C 5.0 °C 1022.9 hPa ESE 3.2 km/h 6.4 km/h 99 % 0.0 mm 21 W/m2
09:55 5.2 °C 5.0 °C 1022.9 hPa ESE 1.6 km/h 6.4 km/h 99 % 0.0 mm 19 W/m2
10:00 5.2 °C 5.0 °C 1022.9 hPa East 1.6 km/h 8.0 km/h 99 % 0.0 mm 19 W/m2
10:05 5.2 °C 5.0 °C 1023.2 hPa ESE 6.4 km/h 8.0 km/h 99 % 0.0 mm 26 W/m2
10:10 5.2 °C 5.0 °C 1023.2 hPa ESE 3.2 km/h 8.0 km/h 99 % 0.0 mm 30 W/m2
10:15 5.2 °C 5.1 °C 1023.2 hPa Calm   6.4 km/h 99 % 0.0 mm 30 W/m2
10:20 5.2 °C 5.1 °C 1023.2 hPa ESE 1.6 km/h 4.8 km/h 99 % 0.0 mm 46 W/m2
10:25 5.3 °C 5.1 °C 1023.2 hPa ESE 3.2 km/h 4.8 km/h 99 % 0.0 mm 56 W/m2
10:30 5.3 °C 5.2 °C 1023.2 hPa SSE 3.2 km/h 9.7 km/h 99 % 0.0 mm 62 W/m2
10:35 5.4 °C 5.2 °C 1023.6 hPa ENE 4.8 km/h 9.7 km/h 99 % 0.0 mm 46 W/m2
10:40 5.4 °C 5.3 °C 1023.6 hPa ENE 4.8 km/h 8.0 km/h 99 % 0.0 mm 47 W/m2
10:50 5.5 °C 5.4 °C 1023.9 hPa Calm   4.8 km/h 99 % 0.0 mm 56 W/m2
10:55 5.6 °C 5.4 °C 1023.9 hPa Calm   4.8 km/h 99 % 0.0 mm 58 W/m2
11:00 5.6 °C 5.5 °C 1024.3 hPa NE 1.6 km/h 6.4 km/h 99 % 0.0 mm 58 W/m2
11:05 5.7 °C 5.5 °C 1024.3 hPa ENE 1.6 km/h 6.4 km/h 99 % 0.0 mm 56 W/m2
11:10 5.7 °C 5.6 °C 1024.3 hPa Calm   8.0 km/h 99 % 0.0 mm 58 W/m2
11:15 5.7 °C 5.6 °C 1024.6 hPa ENE 1.6 km/h 8.0 km/h 99 % 0.0 mm 49 W/m2
11:20 5.7 °C 5.6 °C 1024.6 hPa Calm   11.3 km/h 99 % 0.0 mm 47 W/m2
11:25 5.7 °C 5.5 °C 1024.6 hPa East 6.4 km/h 12.9 km/h 99 % 0.0 mm 42 W/m2
11:30 5.6 °C 5.5 °C 1024.9 hPa NE 8.0 km/h 12.9 km/h 99 % 0.0 mm 37 W/m2
11:35 5.6 °C 5.5 °C 1024.9 hPa ENE 8.0 km/h 14.5 km/h 99 % 0.0 mm 46 W/m2
11:45 5.6 °C 5.4 °C 1024.9 hPa East 4.8 km/h 12.9 km/h 99 % 0.0 mm 44 W/m2
11:50 5.6 °C 5.4 °C 1024.9 hPa NE 4.8 km/h 8.0 km/h 99 % 0.0 mm 39 W/m2
11:55 5.5 °C 5.4 °C 1024.9 hPa East 9.7 km/h 11.3 km/h 99 % 0.0 mm 40 W/m2
12:00 5.6 °C 5.4 °C 1024.9 hPa East 9.7 km/h 14.5 km/h 99 % 0.0 mm 40 W/m2
12:05 5.6 °C 5.4 °C 1025.3 hPa NE 4.8 km/h 14.5 km/h 99 % 0.0 mm 37 W/m2
12:10 5.6 °C 5.4 °C 1024.9 hPa ESE 4.8 km/h 12.9 km/h 99 % 0.0 mm 37 W/m2
12:15 5.6 °C 5.4 °C 1024.9 hPa East 6.4 km/h 9.7 km/h 99 % 0.0 mm 35 W/m2
12:20 5.6 °C 5.5 °C 1024.9 hPa ENE 1.6 km/h 9.7 km/h 99 % 0.0 mm 46 W/m2
12:25 5.6 °C 5.5 °C 1024.9 hPa Calm   8.0 km/h 99 % 0.0 mm 44 W/m2
12:30 5.7 °C 5.5 °C 1024.9 hPa East 1.6 km/h 8.0 km/h 99 % 0.0 mm 56 W/m2
12:35 5.8 °C 5.6 °C 1024.9 hPa ENE 3.2 km/h 8.0 km/h 99 % 0.0 mm 56 W/m2
12:40 5.8 °C 5.6 °C 1024.9 hPa ENE 6.4 km/h 9.7 km/h 99 % 0.0 mm 46 W/m2
12:45 5.8 °C 5.6 °C 1024.9 hPa East 3.2 km/h 9.7 km/h 99 % 0.0 mm 42 W/m2
12:50 5.8 °C 5.6 °C 1024.9 hPa NE 3.2 km/h 8.0 km/h 99 % 0.0 mm 39 W/m2
12:55 5.8 °C 5.7 °C 1024.9 hPa Calm   9.7 km/h 99 % 0.0 mm 26 W/m2
13:00 5.8 °C 5.7 °C 1024.9 hPa NE 1.6 km/h 9.7 km/h 99 % 0.0 mm 25 W/m2
13:05 5.8 °C 5.6 °C 1024.9 hPa East 1.6 km/h 9.7 km/h 99 % 0.0 mm 28 W/m2
13:10 5.8 °C 5.7 °C 1024.9 hPa NE 4.8 km/h 9.7 km/h 99 % 0.0 mm 25 W/m2
13:15 5.8 °C 5.7 °C 1024.9 hPa ENE 3.2 km/h 9.7 km/h 99 % 0.0 mm 44 W/m2
13:20 5.8 °C 5.7 °C 1024.9 hPa Calm   9.7 km/h 99 % 0.0 mm 39 W/m2
13:25 5.8 °C 5.7 °C 1024.9 hPa NE 4.8 km/h 9.7 km/h 99 % 0.0 mm 40 W/m2
13:30 5.8 °C 5.7 °C 1024.6 hPa NE 3.2 km/h 11.3 km/h 99 % 0.0 mm 49 W/m2
13:35 5.8 °C 5.7 °C 1024.6 hPa ENE 6.4 km/h 11.3 km/h 99 % 0.0 mm 49 W/m2
13:40 5.9 °C 5.7 °C 1024.6 hPa NE 4.8 km/h 9.7 km/h 99 % 0.0 mm 58 W/m2
13:45 5.9 °C 5.7 °C 1024.6 hPa ENE 6.4 km/h 9.7 km/h 99 % 0.0 mm 53 W/m2
13:50 5.9 °C 5.7 °C 1024.6 hPa NNE 8.0 km/h 12.9 km/h 99 % 0.0 mm 49 W/m2
13:55 5.9 °C 5.7 °C 1024.6 hPa ENE 4.8 km/h 12.9 km/h 99 % 0.0 mm 46 W/m2
14:00 5.9 °C 5.7 °C 1024.6 hPa NNE 6.4 km/h 12.9 km/h 99 % 0.0 mm 25 W/m2
14:05 5.8 °C 5.7 °C 1024.6 hPa East 1.6 km/h 12.9 km/h 99 % 0.0 mm 49 W/m2
14:10 5.8 °C 5.7 °C 1024.6 hPa East 4.8 km/h 12.9 km/h 99 % 0.0 mm 56 W/m2
14:15 5.8 °C 5.6 °C 1024.3 hPa East 1.6 km/h 9.7 km/h 99 % 0.0 mm 62 W/m2
14:25 5.7 °C 5.6 °C 1024.3 hPa East 8.0 km/h 11.3 km/h 99 % 0.0 mm 53 W/m2
14:30 5.7 °C 5.6 °C 1024.3 hPa ENE 4.8 km/h 11.3 km/h 99 % 0.0 mm 62 W/m2
14:35 5.7 °C 5.6 °C 1024.3 hPa East 1.6 km/h 9.7 km/h 99 % 0.0 mm 67 W/m2
14:40 5.8 °C 5.6 °C 1024.3 hPa ENE 4.8 km/h 9.7 km/h 99 % 0.0 mm 47 W/m2
14:45 5.8 °C 5.6 °C 1024.3 hPa ESE 1.6 km/h 9.7 km/h 99 % 0.0 mm 60 W/m2
14:50 5.8 °C 5.7 °C 1024.3 hPa ESE 3.2 km/h 11.3 km/h 99 % 0.0 mm 62 W/m2
14:55 5.8 °C 5.7 °C 1024.3 hPa SE 3.2 km/h 11.3 km/h 99 % 0.0 mm 44 W/m2
15:00 5.8 °C 5.7 °C 1024.3 hPa NE 3.2 km/h 11.3 km/h 99 % 0.0 mm 51 W/m2
15:05 5.9 °C 5.7 °C 1024.3 hPa NE 3.2 km/h 8.0 km/h 99 % 0.0 mm 35 W/m2
15:10 5.9 °C 5.7 °C 1024.3 hPa NNE 4.8 km/h 9.7 km/h 99 % 0.0 mm 33 W/m2
15:15 5.9 °C 5.7 °C 1024.6 hPa Calm   9.7 km/h 99 % 0.0 mm 33 W/m2
15:20 5.9 °C 5.7 °C 1024.6 hPa NE 1.6 km/h 8.0 km/h 99 % 0.0 mm 37 W/m2
15:25 5.9 °C 5.7 °C 1024.6 hPa ENE 1.6 km/h 6.4 km/h 99 % 0.0 mm 35 W/m2
15:30 5.9 °C 5.7 °C 1024.6 hPa NE 4.8 km/h 6.4 km/h 99 % 0.0 mm 30 W/m2
15:35 5.9 °C 5.7 °C 1024.6 hPa ENE 6.4 km/h 11.3 km/h 99 % 0.0 mm 30 W/m2
15:40 5.9 °C 5.7 °C 1024.6 hPa NE 3.2 km/h 11.3 km/h 99 % 0.0 mm 25 W/m2
15:45 5.8 °C 5.7 °C 1024.6 hPa NNE 11.3 km/h 12.9 km/h 99 % 0.0 mm 26 W/m2
15:50 5.8 °C 5.6 °C 1024.9 hPa NE 6.4 km/h 14.5 km/h 99 % 0.0 mm 19 W/m2
15:55 5.8 °C 5.6 °C 1024.9 hPa ENE 6.4 km/h 14.5 km/h 99 % 0.0 mm 18 W/m2
16:00 5.7 °C 5.6 °C 1024.9 hPa NNE 4.8 km/h 11.3 km/h 99 % 0.0 mm 16 W/m2
16:10 5.7 °C 5.5 °C 1025.3 hPa NE 11.3 km/h 14.5 km/h 99 % 0.0 mm 16 W/m2
16:15 5.7 °C 5.5 °C 1025.3 hPa ENE 14.5 km/h 17.7 km/h 99 % 0.0 mm 14 W/m2
16:20 5.6 °C 5.5 °C 1025.3 hPa ENE 12.9 km/h 17.7 km/h 99 % 0.0 mm 11 W/m2
16:25 5.6 °C 5.4 °C 1025.3 hPa Calm   17.7 km/h 99 % 0.0 mm 9 W/m2
16:30 5.6 °C 5.4 °C 1025.3 hPa NE 8.0 km/h 14.5 km/h 99 % 0.0 mm 9 W/m2
16:40 5.5 °C 5.4 °C 1025.6 hPa NE 4.8 km/h 14.5 km/h 99 % 0.0 mm 7 W/m2
16:45 5.5 °C 5.4 °C 1025.6 hPa NNE 14.5 km/h 17.7 km/h 99 % 0.0 mm 5 W/m2
16:50 5.4 °C 5.3 °C 1025.6 hPa NNE 8.0 km/h 17.7 km/h 99 % 0.0 mm 5 W/m2
16:55 5.4 °C 5.2 °C 1025.6 hPa ENE 4.8 km/h 17.7 km/h 99 % 0.0 mm 0 W/m2
17:00 5.3 °C 5.2 °C 1025.6 hPa NE 11.3 km/h 17.7 km/h 99 % 0.0 mm 0 W/m2
17:05 5.3 °C 5.1 °C 1025.6 hPa NNE 9.7 km/h 17.7 km/h 99 % 0.0 mm 0 W/m2
17:10 5.2 °C 5.1 °C 1025.6 hPa NE 6.4 km/h 17.7 km/h 99 % 0.0 mm 0 W/m2
17:15 5.2 °C 5.0 °C 1025.6 hPa North 1.6 km/h 17.7 km/h 99 % 0.0 mm 0 W/m2
17:20 5.2 °C 5.0 °C 1025.6 hPa ENE 6.4 km/h 16.1 km/h 99 % 0.0 mm 0 W/m2
17:25 5.2 °C 5.0 °C 1025.6 hPa NE 6.4 km/h 16.1 km/h 99 % 0.0 mm 0 W/m2
17:30 5.1 °C 5.0 °C 1025.6 hPa ENE 11.3 km/h 17.7 km/h 99 % 0.0 mm 0 W/m2
17:35 5.1 °C 4.9 °C 1025.6 hPa NNE 11.3 km/h 17.7 km/h 99 % 0.0 mm 0 W/m2
17:40 5.0 °C 4.9 °C 1025.6 hPa ENE 4.8 km/h 17.7 km/h 99 % 0.0 mm 0 W/m2
17:50 5.0 °C 4.9 °C 1025.6 hPa ENE 11.3 km/h 20.9 km/h 99 % 0.0 mm 0 W/m2
17:55 4.9 °C 4.8 °C 1025.6 hPa ENE 6.4 km/h 17.7 km/h 99 % 0.0 mm 0 W/m2
18:00 4.9 °C 4.8 °C 1025.6 hPa ENE 17.7 km/h 17.7 km/h 99 % 0.0 mm 0 W/m2
18:05 4.9 °C 4.8 °C 1025.6 hPa ENE 12.9 km/h 17.7 km/h 99 % 0.0 mm 0 W/m2
18:10 4.9 °C 4.7 °C 1025.6 hPa ENE 4.8 km/h 20.9 km/h 99 % 0.0 mm 0 W/m2
18:15 4.9 °C 4.7 °C 1026.0 hPa ENE 12.9 km/h 20.9 km/h 99 % 0.0 mm 0 W/m2
18:20 4.8 °C 4.7 °C 1026.0 hPa ENE 4.8 km/h 17.7 km/h 99 % 0.0 mm 0 W/m2
18:25 4.8 °C 4.7 °C 1026.0 hPa NNE 11.3 km/h 17.7 km/h 99 % 0.0 mm 0 W/m2
18:30 4.8 °C 4.7 °C 1026.0 hPa NE 6.4 km/h 22.5 km/h 99 % 0.0 mm 0 W/m2
18:35 4.8 °C 4.6 °C 1026.0 hPa ENE 11.3 km/h 22.5 km/h 99 % 0.0 mm 0 W/m2
18:40 4.7 °C 4.6 °C 1026.0 hPa ENE 8.0 km/h 22.5 km/h 99 % 0.0 mm 0 W/m2
18:45 4.7 °C 4.6 °C 1026.0 hPa NE 11.3 km/h 22.5 km/h 99 % 0.0 mm 0 W/m2
18:50 4.7 °C 4.6 °C 1026.0 hPa ENE 3.2 km/h 22.5 km/h 99 % 0.0 mm 0 W/m2
18:55 4.7 °C 4.6 °C 1026.0 hPa NE 6.4 km/h 27.4 km/h 99 % 0.0 mm 0 W/m2
19:00 4.7 °C 4.6 °C 1026.0 hPa NE 11.3 km/h 27.4 km/h 99 % 0.0 mm 0 W/m2
19:05 4.7 °C 4.6 °C 1026.0 hPa East 9.7 km/h 20.9 km/h 99 % 0.0 mm 0 W/m2
19:10 4.7 °C 4.6 °C 1026.0 hPa East 4.8 km/h 16.1 km/h 99 % 0.0 mm 0 W/m2
19:15 4.8 °C 4.6 °C 1026.0 hPa East 11.3 km/h 16.1 km/h 99 % 0.0 mm 0 W/m2
19:20 4.8 °C 4.6 °C 1026.3 hPa NE 4.8 km/h 16.1 km/h 99 % 0.0 mm 0 W/m2
19:25 4.8 °C 4.6 °C 1026.3 hPa ENE 8.0 km/h 19.3 km/h 99 % 0.0 mm 0 W/m2
19:30 4.8 °C 4.6 °C 1026.3 hPa ESE 6.4 km/h 19.3 km/h 99 % 0.0 mm 0 W/m2
19:35 4.7 °C 4.6 °C 1026.6 hPa ESE 11.3 km/h 25.7 km/h 99 % 0.0 mm 0 W/m2
19:40 4.7 °C 4.5 °C 1026.6 hPa NE 11.3 km/h 25.7 km/h 99 % 0.0 mm 0 W/m2
19:45 4.6 °C 4.5 °C 1026.6 hPa ENE 14.5 km/h 22.5 km/h 99 % 0.0 mm 0 W/m2
19:50 4.6 °C 4.5 °C 1026.6 hPa East 17.7 km/h 22.5 km/h 99 % 0.0 mm 0 W/m2
19:55 4.6 °C 4.3 °C 1026.6 hPa ENE 11.3 km/h 24.1 km/h 98 % 0.0 mm 0 W/m2
20:00 4.5 °C 4.2 °C 1026.6 hPa ESE 12.9 km/h 25.7 km/h 98 % 0.0 mm 0 W/m2
20:05 4.5 °C 4.2 °C 1026.6 hPa East 9.7 km/h 25.7 km/h 98 % 0.0 mm 0 W/m2
20:10 4.5 °C 4.2 °C 1026.6 hPa ENE 11.3 km/h 25.7 km/h 98 % 0.0 mm 0 W/m2
20:15 4.5 °C 4.2 °C 1026.6 hPa East 16.1 km/h 19.3 km/h 98 % 0.0 mm 0 W/m2
20:20 4.5 °C 4.2 °C 1027.0 hPa ENE 8.0 km/h 19.3 km/h 98 % 0.0 mm 0 W/m2
20:25 4.5 °C 4.2 °C 1027.0 hPa East 17.7 km/h 25.7 km/h 98 % 0.0 mm 0 W/m2
20:30 4.5 °C 4.2 °C 1027.0 hPa ENE 19.3 km/h 25.7 km/h 98 % 0.0 mm 0 W/m2
20:35 4.5 °C 4.2 °C 1027.0 hPa ENE 4.8 km/h 22.5 km/h 98 % 0.0 mm 0 W/m2
20:40 4.5 °C 4.2 °C 1027.0 hPa ENE 6.4 km/h 22.5 km/h 98 % 0.0 mm 0 W/m2
20:45 4.5 °C 4.2 °C 1027.0 hPa NE 11.3 km/h 22.5 km/h 98 % 0.0 mm 0 W/m2
20:50 4.4 °C 4.2 °C 1027.0 hPa East 19.3 km/h 22.5 km/h 98 % 0.0 mm 0 W/m2
21:00 4.4 °C 4.1 °C 1027.0 hPa East 16.1 km/h 25.7 km/h 98 % 0.0 mm 0 W/m2
21:05 4.4 °C 4.0 °C 1027.3 hPa East 12.9 km/h 22.5 km/h 97 % 0.0 mm 0 W/m2
21:10 4.4 °C 4.0 °C 1027.3 hPa ENE 4.8 km/h 20.9 km/h 97 % 0.0 mm 0 W/m2
21:15 4.4 °C 4.0 °C 1027.3 hPa East 8.0 km/h 20.9 km/h 97 % 0.0 mm 0 W/m2
21:20 4.3 °C 3.9 °C 1027.3 hPa East 16.1 km/h 24.1 km/h 97 % 0.0 mm 0 W/m2
21:25 4.3 °C 3.8 °C 1027.3 hPa East 9.7 km/h 24.1 km/h 97 % 0.0 mm 0 W/m2
21:30 4.3 °C 3.8 °C 1027.3 hPa East 27.4 km/h 29.0 km/h 97 % 0.0 mm 0 W/m2
21:35 4.2 °C 3.6 °C 1027.7 hPa East 16.1 km/h 29.0 km/h 96 % 0.0 mm 0 W/m2
21:40 4.1 °C 3.5 °C 1027.7 hPa ENE 14.5 km/h 29.0 km/h 96 % 0.0 mm 0 W/m2
21:45 4.0 °C 3.4 °C 1027.7 hPa NE 11.3 km/h 29.0 km/h 96 % 0.0 mm 0 W/m2
21:50 3.9 °C 3.3 °C 1027.7 hPa East 11.3 km/h 29.0 km/h 96 % 0.0 mm 0 W/m2
21:55 3.9 °C 3.2 °C 1027.7 hPa East 14.5 km/h 35.4 km/h 95 % 0.0 mm 0 W/m2
22:00 3.8 °C 3.1 °C 1028.0 hPa ESE 14.5 km/h 35.4 km/h 95 % 0.0 mm 0 W/m2
22:05 3.8 °C 3.1 °C 1028.0 hPa East 17.7 km/h 33.8 km/h 95 % 0.0 mm 0 W/m2
22:10 3.8 °C 3.1 °C 1028.0 hPa ENE 11.3 km/h 33.8 km/h 95 % 0.0 mm 0 W/m2
22:15 3.8 °C 3.0 °C 1028.0 hPa East 19.3 km/h 33.8 km/h 94 % 0.0 mm 0 W/m2
22:20 3.8 °C 3.0 °C 1028.0 hPa NE 9.7 km/h 30.6 km/h 94 % 0.0 mm 0 W/m2
22:25 3.8 °C 3.0 °C 1028.0 hPa East 9.7 km/h 30.6 km/h 94 % 0.0 mm 0 W/m2
22:30 3.8 °C 2.7 °C 1028.0 hPa East 14.5 km/h 24.1 km/h 93 % 0.0 mm 0 W/m2
22:40 3.8 °C 2.7 °C 1028.0 hPa ESE 12.9 km/h 29.0 km/h 93 % 0.0 mm 0 W/m2
22:45 3.7 °C 2.7 °C 1028.0 hPa East 12.9 km/h 29.0 km/h 93 % 0.0 mm 0 W/m2
22:50 3.7 °C 2.5 °C 1028.0 hPa ENE 8.0 km/h 22.5 km/h 92 % 0.0 mm 0 W/m2
22:55 3.7 °C 2.5 °C 1028.0 hPa East 14.5 km/h 29.0 km/h 92 % 0.0 mm 0 W/m2
23:00 3.7 °C 2.5 °C 1028.0 hPa East 16.1 km/h 29.0 km/h 92 % 0.0 mm 0 W/m2
23:05 3.7 °C 2.5 °C 1028.0 hPa East 14.5 km/h 24.1 km/h 92 % 0.0 mm 0 W/m2
23:10 3.7 °C 2.5 °C 1028.0 hPa ENE 12.9 km/h 24.1 km/h 92 % 0.0 mm 0 W/m2
23:15 3.7 °C 2.5 °C 1028.0 hPa East 11.3 km/h 22.5 km/h 92 % 0.0 mm 0 W/m2
23:25 3.7 °C 2.5 °C 1028.0 hPa ESE 11.3 km/h 27.4 km/h 92 % 0.0 mm 0 W/m2
23:30 3.7 °C 2.3 °C 1028.3 hPa East 14.5 km/h 30.6 km/h 91 % 0.0 mm 0 W/m2
23:35 3.6 °C 2.3 °C 1028.3 hPa East 9.7 km/h 30.6 km/h 91 % 0.0 mm 0 W/m2
23:40 3.7 °C 2.3 °C 1028.3 hPa East 4.8 km/h 30.6 km/h 91 % 0.0 mm 0 W/m2
23:45 3.7 °C 2.3 °C 1028.3 hPa East 11.3 km/h 17.7 km/h 91 % 0.0 mm 0 W/m2
23:50 3.7 °C 2.3 °C 1028.3 hPa East 11.3 km/h 17.7 km/h 91 % 0.0 mm 0 W/m2
23:55 3.7 °C 2.3 °C 1028.3 hPa East 14.5 km/h 24.1 km/h 91 % 0.0 mm 0 W/m2
Avec l'autorisation de Weather Underground - 1.75 mb